Elkins, WV

6:41 AM EST on November 20, 2019 (GMT -0500)
Elkins-Randolph County

Weather History for KEKN - September, 2019

Change the Weather History Date:

Sunday, September 15, 2019

  Actual Average Record
Temperature  
Mean Temperature 70 °F 63 °F  
Max Temperature 84 °F 74 °F 90 °F (1939)
Min Temperature 54 °F 51 °F 31 °F (1964)
Degree Days  
Heating Degree Days 0 4  
Month to date heating degree days 0 35  
Since 1 July heating degree days 7 65  
Cooling Degree Days 4 1  
Month to date cooling degree days 90 33  
Year to date cooling degree days 761 459  
Growing Degree Days 20 (Base 50)    
Moisture  
Dew Point 53 °F    
Average Humidity 79    
Maximum Humidity 93    
Minimum Humidity 27    
Precipitation  
Precipitation 0.00 in 0.13 in 1.85 in (1911)
Month to date precipitation T 1.83  
Year to date precipitation 37.71 34.64  
Snow  
Snow 0.00 in 0.00 in 0.00 in (2016)
Month to date snowfall 0.0 0.0  
Since 1 September snowfall 0.0 0.0  
Snow Depth 0.00 in    
Sea Level Pressure  
Sea Level Pressure 30.25 in    
Wind  
Wind Speed 1 mph ()    
Max Wind Speed 10 mph    
Max Gust Speed 13 mph    
Visibility 5.2 miles    
Events Fog    
T = Trace of Precipitation, MM = Missing Value Source: Averaged Metar Reports

Daily Weather History Graph

Daily Weather History Graph

Search for Another Location

Airport or City:

Astronomy

Sep. 15, 2019 Rise Set
Actual Time 7:00 AM EDT 7:28 PM EDT
Civil Twilight 6:33 AM EDT 7:54 PM EDT
Nautical Twilight 6:02 AM EDT 8:26 PM EDT
Astronomical Twilight 5:30 AM EDT 8:58 PM EDT
Moon 8:35 PM EDT (9/15) 8:09 AM EDT (9/15)
Length of Visible Light 13h 20m
Length of Day
12h 27m
Full, 98% of the Moon is Illuminated
Sep 15
Full
Sep 21
Last Quarter
Sep 28
New
Oct 5
First Quarter
Oct 13
Full

Hourly Weather History & Observations

Time (EDT) Temp. Dew Point Humidity Pressure Visibility Wind Dir Wind Speed Gust Speed Precip Events Conditions
12:51 AM 57.0 °F 54.0 °F 89% 30.25 in 9.0 mi Calm Calm - N/A   Clear
1:51 AM 57.0 °F 54.0 °F 89% 30.25 in 9.0 mi Calm Calm - N/A   Clear
2:51 AM 55.0 °F 52.0 °F 89% 30.26 in 9.0 mi Calm Calm - N/A   Clear
3:28 AM 55.4 °F 51.8 °F 88% 30.28 in 1.0 mi Calm Calm - N/A   Mist
3:36 AM 55.9 °F 53.1 °F 90% 30.28 in 0.2 mi Calm Calm - N/A Fog Fog
3:51 AM 55.9 °F 54.0 °F 93% 30.27 in 0.2 mi Calm Calm - N/A Fog Fog
4:12 AM 55.9 °F 53.1 °F 90% 30.28 in 0.5 mi Calm Calm - N/A Fog Fog
4:21 AM 55.9 °F 53.1 °F 90% 30.28 in 2.0 mi Calm Calm - N/A   Overcast
4:30 AM 55.9 °F 53.1 °F 90% 30.28 in 6.0 mi Calm Calm - N/A   Overcast
4:51 AM 55.9 °F 53.1 °F 90% 30.26 in 3.0 mi Calm Calm - N/A   Overcast
4:53 AM 55.9 °F 53.1 °F 90% 30.28 in 1.8 mi Calm Calm - N/A   Overcast
5:04 AM 55.0 °F 52.0 °F 89% 30.28 in 3.0 mi Calm Calm - N/A   Overcast
5:14 AM 55.0 °F 52.0 °F 89% 30.28 in 1.8 mi Calm Calm - N/A   Overcast
5:23 AM 55.0 °F 52.0 °F 89% 30.28 in 3.0 mi Calm Calm - N/A   Overcast
5:51 AM 55.0 °F 53.1 °F 93% 30.26 in 10.0 mi Calm Calm - N/A   Overcast
6:51 AM 55.9 °F 53.1 °F 90% 30.26 in 4.0 mi Calm Calm - N/A   Overcast
6:57 AM 55.9 °F 53.1 °F 90% 30.27 in 1.8 mi Calm Calm - N/A   Overcast
7:13 AM 55.9 °F 54.0 °F 93% 30.27 in 0.5 mi SSE 3.5 mph - N/A Fog Fog
7:20 AM 57.0 °F 55.0 °F 93% 30.27 in 0.2 mi Variable 3.5 mph - N/A Fog Fog
7:41 AM 55.9 °F 53.1 °F 90% 30.28 in 0.8 mi Calm Calm - N/A   Overcast
7:51 AM 55.9 °F 53.1 °F 90% 30.27 in 0.2 mi Calm Calm - N/A Fog Fog
8:09 AM 55.9 °F 54.0 °F 93% 30.28 in 0.8 mi Calm Calm - N/A   Mist
8:51 AM 57.0 °F 55.0 °F 93% 30.28 in 1.5 mi Calm Calm - N/A   Overcast
9:03 AM 57.9 °F 55.0 °F 90% 30.28 in 2.5 mi Calm Calm - N/A   Overcast
9:12 AM 57.9 °F 55.0 °F 90% 30.28 in 4.0 mi SSW 5.8 mph - N/A   Overcast
9:17 AM 57.0 °F 55.0 °F 93% 30.28 in 1.8 mi SSW 4.6 mph - N/A   Overcast
9:27 AM 57.9 °F 55.9 °F 93% 30.29 in 0.8 mi Calm Calm - N/A   Overcast
9:51 AM 57.9 °F 55.9 °F 93% 30.30 in 0.8 mi Calm Calm - N/A   Overcast
10:00 AM 59.0 °F 55.9 °F 90% 30.30 in 1.8 mi Calm Calm - N/A   Overcast
10:04 AM 59.0 °F 55.9 °F 90% 30.30 in 3.0 mi Calm Calm - N/A   Overcast
10:29 AM 63.0 °F 55.9 °F 78% 30.29 in 10.0 mi Calm Calm - N/A   Scattered Clouds
10:51 AM 66.9 °F 57.9 °F 73% 30.29 in 10.0 mi West 4.6 mph - N/A   Clear
11:51 AM 72.0 °F 53.1 °F 51% 30.25 in 10.0 mi Calm Calm - N/A   Clear
12:51 PM 77.0 °F 54.0 °F 45% 30.23 in 10.0 mi NW 8.1 mph - N/A   Clear
1:51 PM 80.1 °F 52.0 °F 38% 30.21 in 10.0 mi Variable 3.5 mph - N/A   Clear
2:51 PM 82.9 °F 48.0 °F 29% 30.19 in 10.0 mi WNW 4.6 mph - N/A   Clear
3:51 PM 84.0 °F 46.9 °F 27% 30.17 in 10.0 mi NNW 6.9 mph - N/A   Clear
4:51 PM 84.0 °F 46.9 °F 27% 30.15 in 10.0 mi West 6.9 mph - N/A   Clear
5:51 PM 82.9 °F 46.9 °F 28% 30.15 in 10.0 mi Calm Calm - N/A   Clear
6:51 PM 75.9 °F 57.0 °F 52% 30.16 in 10.0 mi SW 4.6 mph - N/A   Clear
7:51 PM 66.0 °F 55.9 °F 70% 30.17 in 10.0 mi Calm Calm - N/A   Clear
8:51 PM 62.1 °F 54.0 °F 75% 30.18 in 10.0 mi Calm Calm - N/A   Clear
9:51 PM 59.0 °F 54.0 °F 83% 30.20 in 10.0 mi Calm Calm - N/A   Clear
10:51 PM 60.1 °F 55.0 °F 83% 30.19 in 10.0 mi Calm Calm - N/A   Clear
11:51 PM 60.1 °F 55.0 °F 83% 30.18 in 10.0 mi Calm Calm - N/A   Mostly Cloudy